Time,TemperatureF,DewpointF,PressureIn,WindDirection,WindDirectionDegrees,WindSpeedMPH,WindSpeedGustMPH,Humidity,HourlyPrecipIn,Conditions,Clouds,dailyrainin,SoftwareType,DateUTC
2013-04-20 00:00:00,75.7,64.9,30.06,North,0,0.0,0.0,69,0.00,,SCT120,0.00,VWS V14.01,2013-04-20 04:00:00,
2013-04-20 00:01:00,75.7,64.9,30.06,North,0,0.0,0.0,69,0.00,,SCT120,0.00,VWS V14.01,2013-04-20 04:01:00,
2013-04-20 00:06:00,75.7,65.3,30.06,North,0,0.0,0.0,70,0.00,,SCT120,0.00,VWS V14.01,2013-04-20 04:06:00,
2013-04-20 00:11:00,75.7,65.3,30.06,North,0,0.0,0.0,70,0.00,,SCT120,0.00,VWS V14.01,2013-04-20 04:11:00,
2013-04-20 00:16:00,75.7,65.3,30.06,North,0,0.0,0.0,70,0.00,,SCT120,0.00,VWS V14.01,2013-04-20 04:16:00,
2013-04-20 00:21:00,75.7,65.3,30.06,North,0,0.0,0.0,70,0.00,,SCT120,0.00,VWS V14.01,2013-04-20 04:21:00,
2013-04-20 00:26:00,75.7,65.3,30.06,North,0,0.0,0.0,70,0.00,,SCT120,0.00,VWS V14.01,2013-04-20 04:26:00,
2013-04-20 00:31:00,75.7,65.3,30.06,North,0,0.0,0.0,70,0.00,,SCT120,0.00,VWS V14.01,2013-04-20 04:31:00,
2013-04-20 00:36:00,75.7,65.3,30.06,North,0,0.0,0.0,70,0.00,,SCT120,0.00,VWS V14.01,2013-04-20 04:36:00,
2013-04-20 00:41:00,75.7,65.3,30.06,North,0,0.0,0.0,70,0.00,,SCT120,0.00,VWS V14.01,2013-04-20 04:41:00,
2013-04-20 00:46:00,75.9,65.8,30.06,North,0,0.0,0.0,71,0.00,,SCT120,0.00,VWS V14.01,2013-04-20 04:46:00,
2013-04-20 00:51:00,75.9,65.8,30.06,North,0,0.0,0.0,71,0.00,,SCT120,0.00,VWS V14.01,2013-04-20 04:51:00,
2013-04-20 00:56:00,75.9,66.2,30.03,North,0,0.0,0.0,72,0.00,,SCT120,0.00,VWS V14.01,2013-04-20 04:56:00,
2013-04-20 01:01:00,75.9,66.2,30.03,North,0,0.0,0.0,72,0.00,,SCT120,0.00,VWS V14.01,2013-04-20 05:01:00,
2013-04-20 01:06:00,75.9,66.7,30.03,North,0,0.0,0.0,73,0.00,,SCT120,0.00,VWS V14.01,2013-04-20 05:06:00,
2013-04-20 01:11:00,75.7,66.5,30.03,North,0,0.0,0.0,73,0.00,,SCT120,0.00,VWS V14.01,2013-04-20 05:11:00,
2013-04-20 01:16:00,75.7,66.5,30.03,North,0,0.0,0.0,73,0.00,,SCT120,0.00,VWS V14.01,2013-04-20 05:16:00,
2013-04-20 01:21:00,75.7,66.5,30.03,North,0,0.0,0.0,73,0.00,,SCT120,0.00,VWS V14.01,2013-04-20 05:21:00,
2013-04-20 01:26:00,75.7,66.5,30.03,North,0,0.0,0.0,73,0.00,,SCT120,0.00,VWS V14.01,2013-04-20 05:26:00,
2013-04-20 01:31:00,75.9,66.7,30.03,North,0,0.0,0.0,73,0.00,,SCT120,0.00,VWS V14.01,2013-04-20 05:31:00,
2013-04-20 01:36:00,75.9,66.7,30.03,North,0,0.0,0.0,73,0.00,,SCT120,0.00,VWS V14.01,2013-04-20 05:36:00,
2013-04-20 01:41:00,75.9,66.7,30.03,North,0,0.0,0.0,73,0.00,,SCT120,0.00,VWS V14.01,2013-04-20 05:41:00,
2013-04-20 01:46:00,75.9,66.7,30.03,North,0,0.0,0.0,73,0.00,,SCT120,0.00,VWS V14.01,2013-04-20 05:46:00,
2013-04-20 01:51:00,75.7,66.5,30.03,North,0,0.0,0.0,73,0.00,,SCT120,0.00,VWS V14.01,2013-04-20 05:51:00,
2013-04-20 01:56:00,75.7,66.5,30.03,North,0,0.0,0.0,73,0.00,,SCT120,0.00,VWS V14.01,2013-04-20 05:56:00,
2013-04-20 02:01:00,75.7,66.9,30.03,North,0,0.0,0.0,74,0.00,,SCT120,0.00,VWS V14.01,2013-04-20 06:01:00,
2013-04-20 02:06:00,75.7,66.9,30.03,North,0,0.0,0.0,74,0.00,,SCT120,0.00,VWS V14.01,2013-04-20 06:06:00,
2013-04-20 02:11:00,75.7,67.3,30.03,North,0,0.0,0.0,75,0.00,,SCT120,0.00,VWS V14.01,2013-04-20 06:11:00,
2013-04-20 02:16:00,75.7,67.3,30.03,North,0,0.0,0.0,75,0.00,,SCT120,0.00,VWS V14.01,2013-04-20 06:16:00,
2013-04-20 02:21:00,75.7,67.3,30.03,North,0,0.0,0.0,75,0.00,,SCT120,0.00,VWS V14.01,2013-04-20 06:21:00,
2013-04-20 02:26:00,75.7,67.3,30.00,North,0,0.0,0.0,75,0.00,,SCT120,0.00,VWS V14.01,2013-04-20 06:26:00,
2013-04-20 02:31:00,75.7,67.6,30.00,North,0,0.0,0.0,76,0.00,,SCT120,0.00,VWS V14.01,2013-04-20 06:31:00,
2013-04-20 02:36:00,75.7,67.6,30.00,North,0,0.0,0.0,76,0.00,,SCT120,0.00,VWS V14.01,2013-04-20 06:36:00,
2013-04-20 02:41:00,75.6,67.5,30.00,North,0,0.0,0.0,76,0.00,,SCT120,0.00,VWS V14.01,2013-04-20 06:41:00,
2013-04-20 02:46:00,75.6,67.5,30.00,North,0,0.0,0.0,76,0.00,,SCT120,0.00,VWS V14.01,2013-04-20 06:46:00,
2013-04-20 02:51:00,75.4,67.3,30.00,North,0,0.0,0.0,76,0.00,,SCT120,0.00,VWS V14.01,2013-04-20 06:51:00,
2013-04-20 02:56:00,75.6,67.8,30.00,North,0,0.0,0.0,77,0.00,,SCT120,0.00,VWS V14.01,2013-04-20 06:56:00,
2013-04-20 03:01:00,75.4,67.7,30.00,North,0,0.0,0.0,77,0.00,,SCT120,0.00,VWS V14.01,2013-04-20 07:01:00,
2013-04-20 03:06:00,75.4,67.7,30.00,North,0,0.0,0.0,77,0.00,,SCT120,0.00,VWS V14.01,2013-04-20 07:06:00,
2013-04-20 03:11:00,75.2,67.5,30.00,North,0,0.0,0.0,77,0.00,,SCT120,0.00,VWS V14.01,2013-04-20 07:11:00,
2013-04-20 03:16:00,75.2,67.5,30.00,North,0,0.0,0.0,77,0.00,,SCT120,0.00,VWS V14.01,2013-04-20 07:16:00,
2013-04-20 03:21:00,75.2,67.5,30.00,North,0,0.0,0.0,77,0.04,,SCT120,0.04,VWS V14.01,2013-04-20 07:21:00,
2013-04-20 03:26:00,75.4,67.7,30.00,North,0,0.0,0.0,77,0.04,,SCT120,0.04,VWS V14.01,2013-04-20 07:26:00,
2013-04-20 03:31:00,75.2,67.5,30.00,North,0,0.0,0.0,77,0.04,,SCT120,0.04,VWS V14.01,2013-04-20 07:31:00,
2013-04-20 03:36:00,75.0,67.7,30.00,North,0,0.0,0.0,78,0.04,,SCT120,0.04,VWS V14.01,2013-04-20 07:36:00,
2013-04-20 03:41:00,75.0,67.7,30.00,North,0,0.0,0.0,78,0.04,,SCT120,0.04,VWS V14.01,2013-04-20 07:41:00,
2013-04-20 03:46:00,75.0,67.7,30.00,North,0,0.0,0.0,78,0.04,,SCT120,0.04,VWS V14.01,2013-04-20 07:46:00,
2013-04-20 03:51:00,74.8,67.5,30.00,North,0,0.0,0.0,78,0.04,,SCT120,0.04,VWS V14.01,2013-04-20 07:51:00,
2013-04-20 03:56:00,74.8,67.5,30.00,North,0,0.0,0.0,78,0.04,,SCT120,0.04,VWS V14.01,2013-04-20 07:56:00,
2013-04-20 04:01:00,74.8,67.9,30.00,North,0,0.0,0.0,79,0.04,,SCT120,0.04,VWS V14.01,2013-04-20 08:01:00,
2013-04-20 04:07:00,74.8,67.9,30.00,North,0,0.0,0.0,79,0.04,,SCT120,0.04,VWS V14.01,2013-04-20 08:07:00,
2013-04-20 04:12:00,74.8,67.9,30.00,North,0,0.0,0.0,79,0.04,,SCT120,0.04,VWS V14.01,2013-04-20 08:12:00,
2013-04-20 04:17:00,74.8,67.9,30.00,North,0,0.0,0.0,79,0.04,,SCT120,0.04,VWS V14.01,2013-04-20 08:17:00,
2013-04-20 04:22:00,74.8,67.9,30.00,North,0,0.0,0.0,79,0.00,,SCT120,0.04,VWS V14.01,2013-04-20 08:22:00,
2013-04-20 04:27:00,74.8,67.9,30.03,North,0,0.0,0.0,79,0.00,,SCT120,0.04,VWS V14.01,2013-04-20 08:27:00,
2013-04-20 04:32:00,74.8,67.9,30.03,North,0,0.0,0.0,79,0.00,,SCT120,0.04,VWS V14.01,2013-04-20 08:32:00,
2013-04-20 04:37:00,74.8,67.9,30.03,North,0,0.0,0.0,79,0.00,,SCT120,0.04,VWS V14.01,2013-04-20 08:37:00,
2013-04-20 04:42:00,74.8,67.9,30.03,North,0,0.0,0.0,79,0.00,,SCT120,0.04,VWS V14.01,2013-04-20 08:42:00,
2013-04-20 04:47:00,74.8,67.9,30.03,North,0,0.0,0.0,79,0.00,,SCT120,0.04,VWS V14.01,2013-04-20 08:47:00,
2013-04-20 04:52:00,74.8,67.9,30.03,North,0,0.0,0.0,79,0.00,,SCT120,0.04,VWS V14.01,2013-04-20 08:52:00,
2013-04-20 04:57:00,74.8,67.9,30.03,North,0,0.0,0.0,79,0.00,,SCT120,0.04,VWS V14.01,2013-04-20 08:57:00,
2013-04-20 05:02:00,74.8,67.9,30.03,North,0,0.0,0.0,79,0.00,,SCT120,0.04,VWS V14.01,2013-04-20 09:02:00,
2013-04-20 05:07:00,74.7,67.7,30.03,North,0,0.0,0.0,79,0.00,,SCT120,0.04,VWS V14.01,2013-04-20 09:07:00,
2013-04-20 05:12:00,74.7,67.7,30.03,North,0,0.0,0.0,79,0.00,,SCT120,0.04,VWS V14.01,2013-04-20 09:12:00,
2013-04-20 05:17:00,74.7,67.7,30.03,North,0,0.0,0.0,79,0.00,,SCT120,0.04,VWS V14.01,2013-04-20 09:17:00,
2013-04-20 05:22:00,74.5,67.9,30.03,North,0,0.0,0.0,80,0.00,,SCT120,0.04,VWS V14.01,2013-04-20 09:22:00,
2013-04-20 05:27:00,74.5,67.9,30.03,North,0,0.0,0.0,80,0.00,,SCT120,0.04,VWS V14.01,2013-04-20 09:27:00,
2013-04-20 05:32:00,74.5,67.6,30.03,North,0,0.0,0.0,79,0.00,,SCT120,0.04,VWS V14.01,2013-04-20 09:32:00,
2013-04-20 05:37:00,74.5,67.9,30.03,North,0,0.0,0.0,80,0.00,,SCT120,0.04,VWS V14.01,2013-04-20 09:37:00,
2013-04-20 05:42:00,74.5,67.9,30.03,North,0,0.0,0.0,80,0.00,,SCT120,0.04,VWS V14.01,2013-04-20 09:42:00,
2013-04-20 05:47:00,74.5,67.6,30.03,North,0,0.0,0.0,79,0.00,,SCT120,0.04,VWS V14.01,2013-04-20 09:47:00,
2013-04-20 05:52:00,74.5,67.6,30.03,North,0,0.0,0.0,79,0.00,,SCT120,0.04,VWS V14.01,2013-04-20 09:52:00,
2013-04-20 05:57:00,74.3,67.4,30.03,North,0,0.0,0.0,79,0.00,,SCT120,0.04,VWS V14.01,2013-04-20 09:57:00,
2013-04-20 06:02:00,74.3,67.4,30.03,North,0,0.0,0.0,79,0.00,,SCT120,0.04,VWS V14.01,2013-04-20 10:02:00,
2013-04-20 06:07:00,74.3,67.4,30.03,North,0,0.0,0.0,79,0.00,,SCT120,0.04,VWS V14.01,2013-04-20 10:07:00,
2013-04-20 06:12:00,74.1,67.2,30.03,North,0,0.0,0.0,79,0.00,,SCT120,0.04,VWS V14.01,2013-04-20 10:12:00,
2013-04-20 06:17:00,74.1,67.2,30.03,North,0,0.0,0.0,79,0.00,,SCT120,0.04,VWS V14.01,2013-04-20 10:17:00,
2013-04-20 06:22:00,74.1,67.6,30.03,North,0,0.0,0.0,80,0.00,,SCT120,0.04,VWS V14.01,2013-04-20 10:22:00,
2013-04-20 06:27:00,74.1,67.6,30.03,North,0,0.0,0.0,80,0.00,,SCT120,0.04,VWS V14.01,2013-04-20 10:27:00,
2013-04-20 06:32:00,74.1,67.6,30.03,North,0,0.0,0.0,80,0.00,,SCT120,0.04,VWS V14.01,2013-04-20 10:32:00,
2013-04-20 06:37:00,74.1,67.6,30.03,North,0,0.0,0.0,80,0.00,,SCT120,0.04,VWS V14.01,2013-04-20 10:37:00,
2013-04-20 06:42:00,74.3,67.7,30.03,North,0,0.0,0.0,80,0.00,,SCT120,0.04,VWS V14.01,2013-04-20 10:42:00,
2013-04-20 06:47:00,74.3,67.7,30.03,North,0,0.0,0.0,80,0.00,,SCT120,0.04,VWS V14.01,2013-04-20 10:47:00,
2013-04-20 06:52:00,74.5,67.9,30.03,North,0,0.0,0.0,80,0.00,,SCT120,0.04,VWS V14.01,2013-04-20 10:52:00,
2013-04-20 06:57:00,74.5,67.9,30.03,North,0,0.0,0.0,80,0.00,,SCT120,0.04,VWS V14.01,2013-04-20 10:57:00,
2013-04-20 07:02:00,74.7,68.1,30.03,North,0,0.0,0.0,80,0.00,,SCT120,0.04,VWS V14.01,2013-04-20 11:02:00,
2013-04-20 07:07:00,74.7,68.1,30.03,North,0,0.0,0.0,80,0.00,,SCT120,0.04,VWS V14.01,2013-04-20 11:07:00,
2013-04-20 07:12:00,75.0,68.4,30.06,North,0,0.0,0.0,80,0.00,,SCT120,0.04,VWS V14.01,2013-04-20 11:12:00,
2013-04-20 07:17:00,75.0,68.4,30.06,North,0,0.0,0.0,80,0.00,,SCT120,0.04,VWS V14.01,2013-04-20 11:17:00,
2013-04-20 07:22:00,75.2,68.2,30.06,North,0,0.0,0.0,79,0.00,,SCT120,0.04,VWS V14.01,2013-04-20 11:22:00,
2013-04-20 07:27:00,75.4,68.4,30.06,North,0,0.0,0.0,79,0.00,,SCT120,0.04,VWS V14.01,2013-04-20 11:27:00,
2013-04-20 07:32:00,75.6,68.6,30.06,North,0,0.0,0.0,79,0.00,,SCT120,0.04,VWS V14.01,2013-04-20 11:32:00,
2013-04-20 07:37:00,75.6,68.6,30.06,North,0,0.0,0.0,79,0.00,,SCT120,0.04,VWS V14.01,2013-04-20 11:37:00,
2013-04-20 07:42:00,75.7,68.8,30.06,North,0,0.0,0.0,79,0.00,,SCT120,0.04,VWS V14.01,2013-04-20 11:42:00,
2013-04-20 07:47:00,76.1,69.1,30.06,North,0,0.0,0.0,79,0.00,,SCT120,0.04,VWS V14.01,2013-04-20 11:47:00,
2013-04-20 07:52:00,76.1,68.8,30.06,North,0,0.0,0.0,78,0.00,,SCT120,0.04,VWS V14.01,2013-04-20 11:52:00,
2013-04-20 07:57:00,76.3,68.9,30.06,North,0,0.0,0.0,78,0.00,,SCT120,0.04,VWS V14.01,2013-04-20 11:57:00,
2013-04-20 08:02:00,76.5,68.7,30.06,North,0,0.0,0.0,77,0.00,,SCT120,0.04,VWS V14.01,2013-04-20 12:02:00,
2013-04-20 08:07:00,76.5,68.7,30.06,North,0,0.0,0.0,77,0.00,,SCT120,0.04,VWS V14.01,2013-04-20 12:07:00,
2013-04-20 08:12:00,76.6,68.5,30.06,North,0,0.0,0.0,76,0.00,,SCT120,0.04,VWS V14.01,2013-04-20 12:12:00,
2013-04-20 08:17:00,76.8,68.3,30.06,North,0,0.0,0.0,75,0.00,,SCT120,0.04,VWS V14.01,2013-04-20 12:17:00,
2013-04-20 08:22:00,76.8,67.9,30.06,North,0,0.0,0.0,74,0.00,,SCT120,0.04,VWS V14.01,2013-04-20 12:22:00,
2013-04-20 08:27:00,76.8,67.1,30.06,North,0,0.0,0.0,72,0.00,,SCT120,0.04,VWS V14.01,2013-04-20 12:27:00,
2013-04-20 08:32:00,77.2,66.7,30.06,North,0,0.0,0.0,70,0.00,,SCT120,0.04,VWS V14.01,2013-04-20 12:32:00,
2013-04-20 08:37:00,77.4,66.8,30.06,North,0,0.0,0.0,70,0.00,,SCT120,0.04,VWS V14.01,2013-04-20 12:37:00,
2013-04-20 08:42:00,77.5,66.2,30.06,North,0,0.0,0.0,68,0.00,,SCT120,0.04,VWS V14.01,2013-04-20 12:42:00,
2013-04-20 08:47:00,77.7,66.3,30.06,North,0,0.0,0.0,68,0.00,,SCT120,0.04,VWS V14.01,2013-04-20 12:47:00,
2013-04-20 08:52:00,77.7,65.5,30.06,North,0,0.0,0.0,66,0.00,,SCT120,0.04,VWS V14.01,2013-04-20 12:52:00,
2013-04-20 08:57:00,77.9,65.2,30.06,North,0,0.0,0.0,65,0.00,,SCT120,0.04,VWS V14.01,2013-04-20 12:57:00,
2013-04-20 09:02:00,77.7,64.6,30.06,North,0,0.0,0.0,64,0.00,,SCT120,0.04,VWS V14.01,2013-04-20 13:02:00,
2013-04-20 09:07:00,77.7,64.6,30.06,North,0,0.0,0.0,64,0.00,,SCT120,0.04,VWS V14.01,2013-04-20 13:07:00,
2013-04-20 09:12:00,78.1,64.9,30.09,North,0,0.0,0.0,64,0.00,,SCT120,0.04,VWS V14.01,2013-04-20 13:12:00,
2013-04-20 09:17:00,78.4,65.7,30.09,North,0,0.0,0.0,65,0.00,,SCT120,0.04,VWS V14.01,2013-04-20 13:17:00,
2013-04-20 09:22:00,78.8,65.6,30.09,North,0,0.0,0.0,64,0.00,,SCT120,0.04,VWS V14.01,2013-04-20 13:22:00,
2013-04-20 09:27:00,79.0,64.9,30.09,North,0,0.0,0.0,62,0.00,,SCT120,0.04,VWS V14.01,2013-04-20 13:27:00,
2013-04-20 09:32:00,79.3,65.2,30.09,North,0,0.0,0.0,62,0.00,,SCT120,0.04,VWS V14.01,2013-04-20 13:32:00,
2013-04-20 09:38:00,79.5,64.9,30.09,North,0,0.0,0.0,61,0.00,,SCT120,0.04,VWS V14.01,2013-04-20 13:38:00,
2013-04-20 09:43:00,79.7,64.6,30.09,North,0,0.0,0.0,60,0.00,,SCT120,0.04,VWS V14.01,2013-04-20 13:43:00,
2013-04-20 09:48:00,79.9,62.8,30.09,North,0,0.0,0.0,56,0.00,,SCT120,0.04,VWS V14.01,2013-04-20 13:48:00,
2013-04-20 09:53:00,79.9,60.7,30.09,North,0,0.0,0.0,52,0.00,,SCT120,0.04,VWS V14.01,2013-04-20 13:53:00,
2013-04-20 09:58:00,80.2,61.0,30.09,North,0,0.0,0.0,52,0.00,,SCT120,0.04,VWS V14.01,2013-04-20 13:58:00,
2013-04-20 10:03:00,80.4,60.7,30.09,North,0,0.0,0.0,51,0.00,,SCT120,0.04,VWS V14.01,2013-04-20 14:03:00,
2013-04-20 10:08:00,80.4,60.1,30.09,North,0,0.0,0.0,50,0.00,,SCT120,0.04,VWS V14.01,2013-04-20 14:08:00,
2013-04-20 10:13:00,80.4,60.1,30.09,North,0,0.0,0.0,50,0.00,,SCT120,0.04,VWS V14.01,2013-04-20 14:13:00,
2013-04-20 10:18:00,80.4,59.0,30.09,North,0,0.0,0.0,48,0.00,,SCT120,0.04,VWS V14.01,2013-04-20 14:18:00,
2013-04-20 10:23:00,80.6,57.9,30.09,North,0,0.0,0.0,46,0.00,,SCT120,0.04,VWS V14.01,2013-04-20 14:23:00,
2013-04-20 10:28:00,81.0,57.0,30.09,North,0,0.0,0.0,44,0.00,,SCT120,0.04,VWS V14.01,2013-04-20 14:28:00,
2013-04-20 10:33:00,81.5,57.5,30.09,North,0,0.0,0.0,44,0.00,,SCT120,0.04,VWS V14.01,2013-04-20 14:33:00,
2013-04-20 10:38:00,82.4,57.0,30.09,North,0,0.0,0.0,42,0.00,,SCT120,0.04,VWS V14.01,2013-04-20 14:38:00,
2013-04-20 10:43:00,83.3,54.3,30.09,North,0,0.0,0.0,37,0.00,,SCT120,0.04,VWS V14.01,2013-04-20 14:43:00,
2013-04-20 10:48:00,83.7,49.8,30.09,North,0,0.0,0.0,31,0.00,,SCT120,0.04,VWS V14.01,2013-04-20 14:48:00,
2013-04-20 10:53:00,83.7,49.8,30.09,North,0,0.0,0.0,31,0.00,,SCT120,0.04,VWS V14.01,2013-04-20 14:53:00,
2013-04-20 10:58:00,83.7,49.8,30.06,North,0,0.0,0.0,31,0.00,,SCT120,0.04,VWS V14.01,2013-04-20 14:58:00,
2013-04-20 11:03:00,83.7,49.8,30.06,North,0,0.0,0.0,31,0.00,,SCT120,0.04,VWS V14.01,2013-04-20 15:03:00,
2013-04-20 11:08:00,84.0,50.2,30.06,North,0,0.0,0.0,31,0.00,,SCT120,0.04,VWS V14.01,2013-04-20 15:08:00,
2013-04-20 11:13:00,84.0,52.7,30.06,North,0,0.0,0.0,34,0.00,,SCT120,0.04,VWS V14.01,2013-04-20 15:13:00,
2013-04-20 11:18:00,83.7,52.3,30.06,North,0,0.0,0.0,34,0.00,,SCT120,0.04,VWS V14.01,2013-04-20 15:18:00,
2013-04-20 11:23:00,84.0,52.7,30.06,North,0,0.0,0.0,34,0.00,,SCT120,0.04,VWS V14.01,2013-04-20 15:23:00,
2013-04-20 11:28:00,83.7,52.3,30.06,North,0,0.0,0.0,34,0.00,,SCT120,0.04,VWS V14.01,2013-04-20 15:28:00,
2013-04-20 11:33:00,84.0,51.0,30.06,North,0,0.0,0.0,32,0.00,,SCT120,0.04,VWS V14.01,2013-04-20 15:33:00,
2013-04-20 11:38:00,84.2,50.3,30.06,North,0,0.0,0.0,31,0.00,,SCT120,0.04,VWS V14.01,2013-04-20 15:38:00,
2013-04-20 11:43:00,84.6,51.5,30.06,North,0,0.0,0.0,32,0.00,,SCT120,0.04,VWS V14.01,2013-04-20 15:43:00,
2013-04-20 11:48:00,83.7,53.9,30.06,North,0,0.0,0.0,36,0.00,,SCT120,0.04,VWS V14.01,2013-04-20 15:48:00,
2013-04-20 13:24:00,80.8,63.6,30.03,North,0,0.0,0.0,56,0.00,,SCT120,0.04,VWS V14.01,2013-04-20 17:24:00,
2013-04-20 13:29:00,81.1,62.9,30.03,North,0,0.0,0.0,54,0.00,,SCT120,0.04,VWS V14.01,2013-04-20 17:29:00,
2013-04-20 13:34:00,81.7,62.4,30.03,North,0,0.0,0.0,52,0.00,,SCT120,0.04,VWS V14.01,2013-04-20 17:34:00,
2013-04-20 13:39:00,82.0,61.0,30.03,North,0,0.0,0.0,49,0.00,,SCT120,0.04,VWS V14.01,2013-04-20 17:39:00,
2013-04-20 13:44:00,82.2,61.2,30.03,North,0,0.0,0.0,49,0.00,,SCT120,0.04,VWS V14.01,2013-04-20 17:44:00,
2013-04-20 13:49:00,82.2,57.5,30.03,North,0,0.0,0.0,43,0.00,,SCT120,0.04,VWS V14.01,2013-04-20 17:49:00,
2013-04-20 13:54:00,82.4,57.0,30.03,North,0,0.0,0.0,42,0.00,,SCT120,0.04,VWS V14.01,2013-04-20 17:54:00,
2013-04-20 13:59:00,82.4,53.5,30.03,North,0,0.0,0.0,37,0.00,,SCT120,0.04,VWS V14.01,2013-04-20 17:59:00,
2013-04-20 14:04:00,82.6,52.2,30.03,North,0,0.0,0.0,35,0.00,,SCT120,0.04,VWS V14.01,2013-04-20 18:04:00,
2013-04-20 14:09:00,82.8,51.6,30.03,North,0,0.0,0.0,34,0.00,,SCT120,0.04,VWS V14.01,2013-04-20 18:09:00,
2013-04-20 14:14:00,83.1,51.9,30.03,North,0,0.0,0.0,34,0.00,,SCT120,0.04,VWS V14.01,2013-04-20 18:14:00,
2013-04-20 14:19:00,83.3,51.2,30.03,North,0,0.0,0.0,33,0.00,,SCT120,0.04,VWS V14.01,2013-04-20 18:19:00,
2013-04-20 14:24:00,83.3,49.5,30.03,North,0,0.0,0.0,31,0.00,,SCT120,0.04,VWS V14.01,2013-04-20 18:24:00,
2013-04-20 14:29:00,83.3,49.5,30.03,North,0,0.0,0.0,31,0.00,,SCT120,0.04,VWS V14.01,2013-04-20 18:29:00,
2013-04-20 14:34:00,83.5,48.8,30.03,North,0,0.0,0.0,30,0.00,,SCT120,0.04,VWS V14.01,2013-04-20 18:34:00,
2013-04-20 14:39:00,83.3,47.8,30.00,North,0,0.0,0.0,29,0.00,,SCT120,0.04,VWS V14.01,2013-04-20 18:39:00,
2013-04-20 14:44:00,82.9,47.5,30.00,North,0,0.0,0.0,29,0.00,,SCT120,0.04,VWS V14.01,2013-04-20 18:44:00,
2013-04-20 14:49:00,82.9,47.5,30.00,North,0,0.0,0.0,29,0.00,,SCT120,0.04,VWS V14.01,2013-04-20 18:49:00,
2013-04-20 14:54:00,83.3,48.7,30.00,North,0,0.0,0.0,30,0.00,,SCT120,0.04,VWS V14.01,2013-04-20 18:54:00,
2013-04-20 14:59:00,82.9,48.3,30.00,North,0,0.0,0.0,30,0.00,,SCT120,0.04,VWS V14.01,2013-04-20 18:59:00,
2013-04-20 15:04:00,82.6,48.0,30.00,North,0,0.0,0.0,30,0.00,,SCT120,0.04,VWS V14.01,2013-04-20 19:04:00,
2013-04-20 15:09:00,82.2,48.6,30.00,North,0,0.0,0.0,31,0.00,,SCT120,0.04,VWS V14.01,2013-04-20 19:09:00,
2013-04-20 15:14:00,82.0,49.3,30.00,North,0,0.0,0.0,32,0.00,,SCT120,0.04,VWS V14.01,2013-04-20 19:14:00,
2013-04-20 15:19:00,81.7,49.8,30.00,North,0,0.0,0.0,33,0.00,,SCT120,0.04,VWS V14.01,2013-04-20 19:19:00,
2013-04-20 15:24:00,82.0,50.9,29.97,North,0,0.0,0.0,34,0.00,,SCT120,0.04,VWS V14.01,2013-04-20 19:24:00,
2013-04-20 15:29:00,82.4,49.6,29.97,North,0,0.0,0.0,32,0.00,,SCT120,0.04,VWS V14.01,2013-04-20 19:29:00,
2013-04-20 15:34:00,82.4,49.6,29.97,North,0,0.0,0.0,32,0.00,,SCT120,0.04,VWS V14.01,2013-04-20 19:34:00,
2013-04-20 15:39:00,82.2,53.4,30.00,North,0,0.0,0.0,37,0.00,,SCT120,0.04,VWS V14.01,2013-04-20 19:39:00,
2013-04-20 15:44:00,81.3,55.4,30.00,North,0,0.0,0.0,41,0.00,,SCT120,0.04,VWS V14.01,2013-04-20 19:44:00,
2013-04-20 15:49:00,80.6,56.1,30.00,North,0,0.0,0.0,43,0.00,,SCT120,0.04,VWS V14.01,2013-04-20 19:49:00,
2013-04-20 15:54:00,80.1,57.4,30.00,North,0,0.0,0.0,46,0.00,,SCT120,0.04,VWS V14.01,2013-04-20 19:54:00,
2013-04-20 15:59:00,79.7,59.4,30.00,North,0,0.0,0.0,50,0.00,,SCT120,0.04,VWS V14.01,2013-04-20 19:59:00,
2013-04-20 16:04:00,79.5,60.4,30.00,North,0,0.0,0.0,52,0.00,,SCT120,0.04,VWS V14.01,2013-04-20 20:04:00,
2013-04-20 16:09:00,79.3,60.7,30.00,North,0,0.0,0.0,53,0.00,,SCT120,0.04,VWS V14.01,2013-04-20 20:09:00,
2013-04-20 16:14:00,79.2,63.1,30.00,North,0,0.0,0.0,58,0.00,,SCT120,0.04,VWS V14.01,2013-04-20 20:14:00,
2013-04-20 16:19:00,78.4,64.8,30.00,North,0,0.0,0.0,63,0.04,,SCT120,0.08,VWS V14.01,2013-04-20 20:19:00,
2013-04-20 16:24:00,76.6,62.7,30.00,North,0,0.0,0.0,62,0.12,,SCT120,0.16,VWS V14.01,2013-04-20 20:24:00,
2013-04-20 16:29:00,75.7,64.4,30.00,North,0,0.0,0.0,68,0.24,,SCT120,0.28,VWS V14.01,2013-04-20 20:29:00,
2013-04-20 16:34:00,75.4,65.3,30.00,North,0,0.0,0.0,71,0.35,,SCT120,0.39,VWS V14.01,2013-04-20 20:34:00,
2013-04-20 16:39:00,75.7,66.5,30.00,North,0,0.0,0.0,73,0.35,,SCT120,0.39,VWS V14.01,2013-04-20 20:39:00,
2013-04-20 16:44:00,76.1,66.8,30.00,North,0,0.0,0.0,73,0.39,,SCT120,0.43,VWS V14.01,2013-04-20 20:44:00,
2013-04-20 16:49:00,76.5,67.6,30.00,North,0,0.0,0.0,74,0.39,,SCT120,0.43,VWS V14.01,2013-04-20 20:49:00,
2013-04-20 16:54:00,76.6,67.7,30.00,North,0,0.0,0.0,74,0.39,,SCT120,0.43,VWS V14.01,2013-04-20 20:54:00,
2013-04-20 16:59:00,76.8,67.5,30.00,North,0,0.0,0.0,73,0.39,,SCT120,0.43,VWS V14.01,2013-04-20 20:59:00,
2013-04-20 17:04:00,76.8,67.1,30.00,North,0,0.0,0.0,72,0.43,,SCT120,0.47,VWS V14.01,2013-04-20 21:04:00,
2013-04-20 17:09:00,76.6,66.9,30.00,North,0,0.0,0.0,72,0.43,,SCT120,0.47,VWS V14.01,2013-04-20 21:09:00,
2013-04-20 17:14:00,76.8,67.5,30.00,North,0,0.0,0.0,73,0.43,,SCT120,0.47,VWS V14.01,2013-04-20 21:14:00,
2013-04-20 17:19:00,77.0,67.7,30.00,North,0,0.0,0.0,73,0.39,,SCT120,0.47,VWS V14.01,2013-04-20 21:19:00,
2013-04-20 17:24:00,77.2,68.3,30.00,North,0,0.0,0.0,74,0.39,,SCT120,0.47,VWS V14.01,2013-04-20 21:24:00,
2013-04-20 17:29:00,77.4,68.4,30.00,North,0,0.0,0.0,74,0.39,,SCT120,0.47,VWS V14.01,2013-04-20 21:29:00,
2013-04-20 17:34:00,77.5,68.2,30.00,North,0,0.0,0.0,73,0.39,,SCT120,0.47,VWS V14.01,2013-04-20 21:34:00,
2013-04-20 17:39:00,77.5,68.2,29.97,North,0,0.0,0.0,73,0.39,,SCT120,0.47,VWS V14.01,2013-04-20 21:39:00,
2013-04-20 17:44:00,77.5,67.8,29.97,North,0,0.0,0.0,72,0.08,,SCT120,0.47,VWS V14.01,2013-04-20 21:44:00,
2013-04-20 17:49:00,77.4,67.6,29.97,North,0,0.0,0.0,72,0.08,,SCT120,0.47,VWS V14.01,2013-04-20 21:49:00,
2013-04-20 17:54:00,77.2,67.5,30.00,North,0,0.0,0.0,72,0.08,,SCT120,0.47,VWS V14.01,2013-04-20 21:54:00,
2013-04-20 17:59:00,77.2,67.5,30.00,North,0,0.0,0.0,72,0.04,,SCT120,0.47,VWS V14.01,2013-04-20 21:59:00,
2013-04-20 18:04:00,77.2,67.1,30.00,North,0,0.0,0.0,71,0.04,,SCT120,0.47,VWS V14.01,2013-04-20 22:04:00,
2013-04-20 18:09:00,77.2,67.5,30.00,North,0,0.0,0.0,72,0.04,,SCT120,0.47,VWS V14.01,2013-04-20 22:09:00,
2013-04-20 18:14:00,77.0,67.3,30.00,North,0,0.0,0.0,72,0.08,,SCT120,0.51,VWS V14.01,2013-04-20 22:14:00,
2013-04-20 18:19:00,77.0,67.3,30.00,North,0,0.0,0.0,72,0.04,,SCT120,0.51,VWS V14.01,2013-04-20 22:19:00,
2013-04-20 18:24:00,77.0,67.3,30.00,North,0,0.0,0.0,72,0.04,,SCT120,0.51,VWS V14.01,2013-04-20 22:24:00,
2013-04-20 18:29:00,77.0,67.7,30.00,North,0,0.0,0.0,73,0.12,,SCT120,0.59,VWS V14.01,2013-04-20 22:29:00,
2013-04-20 18:34:00,76.5,66.8,30.00,North,0,0.0,0.0,72,0.16,,SCT120,0.63,VWS V14.01,2013-04-20 22:34:00,
2013-04-20 18:39:00,76.3,67.0,30.00,North,0,0.0,0.0,73,0.16,,SCT120,0.63,VWS V14.01,2013-04-20 22:39:00,
2013-04-20 18:44:00,76.3,67.0,30.00,North,0,0.0,0.0,73,0.16,,SCT120,0.63,VWS V14.01,2013-04-20 22:44:00,
2013-04-20 18:49:00,75.7,66.1,30.00,North,0,0.0,0.0,72,0.31,,SCT120,0.79,VWS V14.01,2013-04-20 22:49:00,
2013-04-20 18:54:00,75.2,65.6,30.03,North,0,0.0,0.0,72,0.39,,SCT120,0.87,VWS V14.01,2013-04-20 22:54:00,
2013-04-20 18:59:00,75.4,66.1,30.03,North,0,0.0,0.0,73,0.39,,SCT120,0.87,VWS V14.01,2013-04-20 22:59:00,
2013-04-20 19:04:00,75.2,66.0,30.03,North,0,0.0,0.0,73,0.39,,SCT120,0.87,VWS V14.01,2013-04-20 23:04:00,
2013-04-20 19:09:00,75.2,66.0,30.03,North,0,0.0,0.0,73,0.39,,SCT120,0.87,VWS V14.01,2013-04-20 23:09:00,
2013-04-20 19:14:00,75.2,66.0,30.03,North,0,0.0,0.0,73,0.39,,SCT120,0.87,VWS V14.01,2013-04-20 23:14:00,
2013-04-20 19:19:00,75.4,66.1,30.03,North,0,0.0,0.0,73,0.35,,SCT120,0.87,VWS V14.01,2013-04-20 23:19:00,
2013-04-20 19:24:00,75.4,66.5,30.00,North,0,0.0,0.0,74,0.35,,SCT120,0.87,VWS V14.01,2013-04-20 23:24:00,
2013-04-20 19:29:00,75.4,66.5,30.00,North,0,0.0,0.0,74,0.35,,SCT120,0.87,VWS V14.01,2013-04-20 23:29:00,
2013-04-20 19:34:00,75.4,66.5,30.00,North,0,0.0,0.0,74,0.35,,SCT120,0.87,VWS V14.01,2013-04-20 23:34:00,
2013-04-20 19:39:00,75.4,66.9,30.03,North,0,0.0,0.0,75,0.24,,SCT120,0.87,VWS V14.01,2013-04-20 23:39:00,
2013-04-20 19:44:00,75.6,67.1,30.03,North,0,0.0,0.0,75,0.24,,SCT120,0.87,VWS V14.01,2013-04-20 23:44:00,
2013-04-20 19:49:00,75.6,67.5,30.03,North,0,0.0,0.0,76,0.24,,SCT120,0.87,VWS V14.01,2013-04-20 23:49:00,
2013-04-20 19:54:00,75.6,67.5,30.06,North,0,0.0,0.0,76,0.24,,SCT120,0.87,VWS V14.01,2013-04-20 23:54:00,
2013-04-20 19:59:00,75.6,67.5,30.06,North,0,0.0,0.0,76,0.00,,SCT120,0.87,VWS V14.01,2013-04-20 23:59:00,
2013-04-20 20:04:00,75.6,67.5,30.06,North,0,0.0,0.0,76,0.00,,SCT120,0.87,VWS V14.01,2013-04-21 00:04:00,
2013-04-20 20:09:00,75.6,67.5,30.06,North,0,0.0,0.0,76,0.00,,SCT120,0.87,VWS V14.01,2013-04-21 00:09:00,
2013-04-20 20:14:00,75.2,67.1,30.06,North,0,0.0,0.0,76,0.00,,SCT120,0.87,VWS V14.01,2013-04-21 00:14:00,
2013-04-20 20:19:00,75.2,67.1,30.06,North,0,0.0,0.0,76,0.00,,SCT120,0.87,VWS V14.01,2013-04-21 00:19:00,
2013-04-20 20:24:00,75.2,67.1,30.06,North,0,0.0,0.0,76,0.00,,SCT120,0.87,VWS V14.01,2013-04-21 00:24:00,
2013-04-20 20:29:00,75.0,67.3,30.06,North,0,0.0,0.0,77,0.00,,SCT120,0.87,VWS V14.01,2013-04-21 00:29:00,
2013-04-20 20:34:00,75.0,67.3,30.06,North,0,0.0,0.0,77,0.00,,SCT120,0.87,VWS V14.01,2013-04-21 00:34:00,
2013-04-20 20:39:00,75.0,67.3,30.06,North,0,0.0,0.0,77,0.00,,SCT120,0.87,VWS V14.01,2013-04-21 00:39:00,
2013-04-20 20:44:00,75.0,67.3,30.06,North,0,0.0,0.0,77,0.00,,SCT120,0.87,VWS V14.01,2013-04-21 00:44:00,
2013-04-20 20:49:00,75.0,67.7,30.06,North,0,0.0,0.0,78,0.00,,SCT120,0.87,VWS V14.01,2013-04-21 00:49:00,
2013-04-20 20:54:00,75.0,67.7,30.03,North,0,0.0,0.0,78,0.00,,SCT120,0.87,VWS V14.01,2013-04-21 00:54:00,
2013-04-20 20:59:00,75.0,68.1,30.03,North,0,0.0,0.0,79,0.00,,SCT120,0.87,VWS V14.01,2013-04-21 00:59:00,
2013-04-20 21:04:00,75.0,68.1,30.03,North,0,0.0,0.0,79,0.00,,SCT120,0.87,VWS V14.01,2013-04-21 01:04:00,
2013-04-20 21:09:00,75.0,68.1,30.03,North,0,0.0,0.0,79,0.00,,SCT120,0.87,VWS V14.01,2013-04-21 01:09:00,
2013-04-20 21:14:00,75.2,68.2,30.06,North,0,0.0,0.0,79,0.00,,SCT120,0.87,VWS V14.01,2013-04-21 01:14:00,
2013-04-20 21:19:00,75.2,68.2,30.06,North,0,0.0,0.0,79,0.00,,SCT120,0.87,VWS V14.01,2013-04-21 01:19:00,
2013-04-20 21:24:00,74.8,68.3,30.06,North,0,0.0,0.0,80,0.00,,SCT120,0.87,VWS V14.01,2013-04-21 01:24:00,
2013-04-20 21:29:00,74.7,68.1,30.06,North,0,0.0,0.0,80,0.00,,SCT120,0.87,VWS V14.01,2013-04-21 01:29:00,
2013-04-20 21:34:00,74.7,68.1,30.06,North,0,0.0,0.0,80,0.00,,SCT120,0.87,VWS V14.01,2013-04-21 01:34:00,
2013-04-20 21:39:00,74.7,68.4,30.06,North,0,0.0,0.0,81,0.00,,SCT120,0.87,VWS V14.01,2013-04-21 01:39:00,
2013-04-20 21:44:00,74.5,68.3,30.06,North,0,0.0,0.0,81,0.00,,SCT120,0.87,VWS V14.01,2013-04-21 01:44:00,
2013-04-20 21:49:00,74.3,68.1,30.06,North,0,0.0,0.0,81,0.00,,SCT120,0.87,VWS V14.01,2013-04-21 01:49:00,
2013-04-20 21:54:00,74.1,67.9,30.06,North,0,0.0,0.0,81,0.00,,SCT120,0.87,VWS V14.01,2013-04-21 01:54:00,
2013-04-20 21:59:00,74.3,68.1,30.06,North,0,0.0,0.0,81,0.00,,SCT120,0.87,VWS V14.01,2013-04-21 01:59:00,
2013-04-20 22:04:00,74.3,68.1,30.06,North,0,0.0,0.0,81,0.00,,SCT120,0.87,VWS V14.01,2013-04-21 02:04:00,
2013-04-20 22:09:00,74.3,68.1,30.06,North,0,0.0,0.0,81,0.00,,SCT120,0.87,VWS V14.01,2013-04-21 02:09:00,
2013-04-20 22:14:00,74.3,68.4,30.06,North,0,0.0,0.0,82,0.00,,SCT120,0.87,VWS V14.01,2013-04-21 02:14:00,
2013-04-20 22:19:00,74.3,68.4,30.06,North,0,0.0,0.0,82,0.00,,SCT120,0.87,VWS V14.01,2013-04-21 02:19:00,
2013-04-20 22:24:00,74.1,68.3,30.06,North,0,0.0,0.0,82,0.00,,SCT120,0.87,VWS V14.01,2013-04-21 02:24:00,
2013-04-20 22:29:00,74.1,68.3,30.06,North,0,0.0,0.0,82,0.00,,SCT120,0.87,VWS V14.01,2013-04-21 02:29:00,
2013-04-20 22:34:00,74.1,68.6,30.06,North,0,0.0,0.0,83,0.00,,SCT120,0.87,VWS V14.01,2013-04-21 02:34:00,
2013-04-20 22:39:00,74.3,68.8,30.06,North,0,0.0,0.0,83,0.00,,SCT120,0.87,VWS V14.01,2013-04-21 02:39:00,
2013-04-20 22:44:00,74.3,68.8,30.06,North,0,0.0,0.0,83,0.00,,SCT120,0.87,VWS V14.01,2013-04-21 02:44:00,
2013-04-20 22:49:00,74.5,69.0,30.06,North,0,0.0,0.0,83,0.00,,SCT120,0.87,VWS V14.01,2013-04-21 02:49:00,
2013-04-20 22:54:00,74.5,69.0,30.06,North,0,0.0,0.0,83,0.00,,SCT120,0.87,VWS V14.01,2013-04-21 02:54:00,
2013-04-20 22:59:00,74.7,69.2,30.06,North,0,0.0,0.0,83,0.00,,SCT120,0.87,VWS V14.01,2013-04-21 02:59:00,
2013-04-20 23:04:00,74.7,69.2,30.06,North,0,0.0,0.0,83,0.00,,SCT120,0.87,VWS V14.01,2013-04-21 03:04:00,
2013-04-20 23:09:00,74.7,69.2,30.06,North,0,0.0,0.0,83,0.00,,SCT120,0.87,VWS V14.01,2013-04-21 03:09:00,
2013-04-20 23:14:00,74.7,68.8,30.06,North,0,0.0,0.0,82,0.00,,SCT120,0.87,VWS V14.01,2013-04-21 03:14:00,
2013-04-20 23:19:00,74.5,68.6,30.06,North,0,0.0,0.0,82,0.00,,SCT120,0.87,VWS V14.01,2013-04-21 03:19:00,
2013-04-20 23:24:00,74.5,68.6,30.06,North,0,0.0,0.0,82,0.00,,SCT120,0.87,VWS V14.01,2013-04-21 03:24:00,
2013-04-20 23:29:00,74.3,68.4,30.06,North,0,0.0,0.0,82,0.00,,SCT120,0.87,VWS V14.01,2013-04-21 03:29:00,
2013-04-20 23:34:00,74.3,68.1,30.06,North,0,0.0,0.0,81,0.00,,SCT120,0.87,VWS V14.01,2013-04-21 03:34:00,
2013-04-20 23:39:00,74.3,68.1,30.06,North,0,0.0,0.0,81,0.00,,SCT120,0.87,VWS V14.01,2013-04-21 03:39:00,
2013-04-20 23:44:00,74.1,67.9,30.06,North,0,0.0,0.0,81,0.00,,SCT120,0.87,VWS V14.01,2013-04-21 03:44:00,
2013-04-20 23:49:00,74.3,68.1,30.06,North,0,0.0,0.0,81,0.00,,SCT120,0.87,VWS V14.01,2013-04-21 03:49:00,
2013-04-20 23:54:00,74.1,67.6,30.06,North,0,0.0,0.0,80,0.00,,SCT120,0.87,VWS V14.01,2013-04-21 03:54:00,
2013-04-20 23:59:00,73.9,67.4,30.06,North,0,0.0,0.0,80,0.00,,SCT120,0.00,VWS V14.01,2013-04-21 03:59:00,